Estación de Longaví Norte
Ultimos registro cada 15 minutos 31
| N° | Estación | Fecha / Hora | Temperatura | Humedad | Lluvia | Velocidad | Dirección | Radiación | Presion |
| 31 | Longaví Norte | 06-05-2026 07:30 | 12,3 | 99,5 | 0,2 | 1,3 | 35 | 0,6 | 993,7 |
| 30 | Longaví Norte | 06-05-2026 07:15 | 12,3 | 99,4 | 0,6 | 1 | 34 | 0,6 | 993,5 |
| 29 | Longaví Norte | 06-05-2026 07:00 | 12,4 | 99,3 | 0,6 | 1,3 | 28 | 0,6 | 993,5 |
| 28 | Longaví Norte | 06-05-2026 06:45 | 12,4 | 99,1 | 0,4 | 1,3 | 32 | 0,6 | 993,5 |
| 27 | Longaví Norte | 06-05-2026 06:30 | 12,4 | 99,1 | 0,6 | 1,3 | 25 | 0,6 | 993,2 |
| 26 | Longaví Norte | 06-05-2026 06:15 | 12,5 | 98,9 | 0,8 | 1 | 27 | 0,6 | 993,1 |
| 25 | Longaví Norte | 06-05-2026 06:00 | 12,6 | 98,7 | 1,2 | 1,3 | 15 | 0,6 | 993,1 |
| 24 | Longaví Norte | 06-05-2026 05:45 | 12,6 | 98,7 | 0,4 | 1,3 | 14 | 0,6 | 993 |
| 23 | Longaví Norte | 06-05-2026 05:30 | 12,7 | 98,5 | 0,8 | 1,7 | 21 | 0,6 | 992,8 |
| 22 | Longaví Norte | 06-05-2026 05:15 | 12,7 | 97,9 | 2 | 1,3 | 20 | 0,6 | 992,9 |
| 21 | Longaví Norte | 06-05-2026 05:00 | 13 | 93,6 | 3 | 1,3 | 6 | 0,6 | 993 |
| 20 | Longaví Norte | 06-05-2026 04:45 | 15,2 | 81,6 | 0 | 1,7 | 13 | 0,6 | 992,9 |
| 19 | Longaví Norte | 06-05-2026 04:30 | 15,7 | 78,9 | 0 | 2 | 25 | 0,6 | 992,5 |
| 18 | Longaví Norte | 06-05-2026 04:15 | 16 | 76,5 | 0 | 2 | 31 | 0,6 | 992,3 |
| 17 | Longaví Norte | 06-05-2026 04:00 | 15,7 | 78,4 | 0 | 1,7 | 35 | 0,6 | 992,4 |
| 16 | Longaví Norte | 06-05-2026 03:45 | 15,4 | 80,1 | 0 | 1,7 | 37 | 0,6 | 992,8 |
| 15 | Longaví Norte | 06-05-2026 03:30 | 14,9 | 82,6 | 0 | 0,7 | 28 | 0,6 | 993,3 |
| 14 | Longaví Norte | 06-05-2026 03:15 | 14,6 | 84,2 | 0 | 1 | 21 | 0,6 | 993,6 |
| 13 | Longaví Norte | 06-05-2026 03:00 | 14,3 | 85,4 | 0 | 1 | 29 | 0,6 | 993,8 |
| 12 | Longaví Norte | 06-05-2026 02:45 | 14,2 | 85,7 | 0 | 0,7 | 29 | 0,6 | 993,9 |
| 11 | Longaví Norte | 06-05-2026 02:30 | 14,1 | 85,8 | 0 | 1,3 | 34 | 0,6 | 993,9 |
| 10 | Longaví Norte | 06-05-2026 02:15 | 13,9 | 86,7 | 0 | 1,3 | 34 | 0,6 | 993,8 |
| 9 | Longaví Norte | 06-05-2026 02:00 | 13,7 | 87,2 | 0 | 1,3 | 38 | 0,6 | 993,6 |
| 8 | Longaví Norte | 06-05-2026 01:45 | 13,5 | 87,7 | 0 | 1 | 41 | 0,6 | 993,6 |
| 7 | Longaví Norte | 06-05-2026 01:30 | 13,6 | 88 | 0 | 1 | 39 | 0,6 | 993,8 |
| 6 | Longaví Norte | 06-05-2026 01:15 | 13,2 | 89,9 | 0 | 0,7 | 46 | 0,6 | 994,1 |
| 5 | Longaví Norte | 06-05-2026 01:00 | 12,9 | 91 | 0 | 0,7 | 34 | 0,6 | 994,1 |
| 4 | Longaví Norte | 06-05-2026 00:45 | 12,9 | 90,9 | 0 | 0,7 | 39 | 0,6 | 994,3 |
| 3 | Longaví Norte | 06-05-2026 00:30 | 13,1 | 90,1 | 0 | 0,7 | 32 | 0,6 | 994,7 |
| 2 | Longaví Norte | 06-05-2026 00:15 | 13,5 | 88,4 | 0 | 1 | 7 | 0,6 | 994,8 |
| 1 | Longaví Norte | 06-05-2026 00:00 | 13,9 | 87,4 | 0 | 1 | 21 | 0,6 | 994,7 |